Preview of NWS' New Version of Forecast
This preview is not operational and should not be used for support decisions.

Regional Weather Roundup (RWR)

Issued by National Weather Service (NWS)

                            
000
ASCA42 TJSJ 220510
RWRPR 
PUERTO RICO/U.S. VIRGIN ISLANDS HOURLY WEATHER ROUNDUP
NATIONAL WEATHER SERVICE SAN JUAN PR
100 AM AST MON JUL 22 2019

PRZ001>002-007>008-010-220600-
PUERTO RICO
  
CITY           SKY/WX    TMP DP  RH WIND       PRES   REMARKS
SAN JUAN LMM   PTCLDY    81  73  78 SE5       30.01F                  
CEIBA          PTCLDY    82  73  74 E8        30.02F                  
$$

VIZ001>002-220600-
U.S. VIRGIN ISLANDS
  
CITY           SKY/WX    TMP DP  RH WIND       PRES   REMARKS
CHARLOTTE AMA  CLEAR     79  75  89 E6        30.00F                  
CHRISTIANSTED  LGT RAIN  79  73  83 NE8       30.01F                  
$$

HOURLY WEATHER ROUNDUP FOR THE NEWS MEDIA
  
CITY           SKY/WX    TMP DP  RH WIND       PRES   REMARKS
ORLANDO        FAIR      76  71  85 N3        30.07S                  
NEW YORK       CLOUDY    82  74  76 CALM      29.87R                  
NEWARK         CLOUDY    80  72  76 W16G22    29.89R                  
CHICAGO        MOCLDY    69  57  65 N12       29.98R                  
HARTFORD       FAIR      79  68  69 W6        29.80R                  
BOSTON         MOCLDY    84  67  56 NW9       29.79R                  
DALLAS         MOCLDY    87  68  52 S6        29.93S HX  90           
PHILADELPHIA   CLOUDY    81  69  67 N7        29.87R                  
LOS ANGELES    MOCLDY    64  60  87 W7        29.92R                  
WASHINGTON DC  MOCLDY    72  68  87 CALM      29.91F